[[{"header":{"parameterUnit":"m.s-1","parameterCategory":1,"la1":30.2991,"la2":30.254,"lo1":-89.0895,"lo2":-89.0444,"dy":0.0017,"dx":0.0017,"nx":28,"ny":28,"refTime":"2024-09-27T03:00:00:Z","depth":0,"parameterNumber":2,"parameterNumberName":"U-component_of_WINDS"},"data":[0,0,0,0,0,0,0,0,0,0,0,0,0,0,0,0,0,0,0,0,0,0,0,0,0,0,0,0,0,0,0,0,0,0,0,0,0,0,0,0,0,0,0,0,0,0,0,0,0,0,0,0,0,0,0,0,0,0,3.7244,3.7245,0,3.7342,3.7343,3.7344,3.7319,3.7318,3.7316,3.7314,3.7413,3.7417,3.7422,0,0,0,0,0,0,0,0,0,0,0,0,0,3.7038,3.7042,3.7244,3.7245,3.7247,3.7341,3.7343,3.7344,3.732,3.7317,3.7315,3.7313,3.7412,3.7417,3.7422,0,0,0,0,0,0,0,0,0,0,0,0,0,3.7131,3.7043,3.7244,3.7246,3.7247,3.7341,3.7343,3.7344,3.732,3.7317,3.7315,3.7312,3.741,3.7416,3.7423,3.7521,0,0,3.7443,3.7446,0,0,0,0,0,0,0,0,3.7125,3.7138,3.7244,3.7246,3.7247,3.7315,3.7306,3.7404,3.7321,3.7292,3.7314,3.7311,3.7383,3.7392,3.7416,3.7525,3.753,3.7444,3.7448,3.7451,3.7452,0,0,0,0,0,0,0,3.7119,3.7134,3.7283,3.7246,3.7248,3.7242,3.7252,3.7325,3.7352,3.7295,3.7293,3.7305,3.7383,3.741,3.7418,3.7531,3.7443,3.7449,3.7453,3.7456,3.7728,3.7731,0,0,0,0,0,0,3.7111,3.7129,3.728,3.7286,3.7178,3.7248,3.7259,3.7297,3.7352,3.7357,3.7307,3.7304,3.74,3.741,3.7422,3.7541,3.745,3.7457,3.746,3.7725,3.7729,3.7732,0,0,0,0,0,0,3.7107,3.7125,3.7276,3.7207,3.7226,3.7255,3.7297,3.73,3.7326,3.7361,3.7366,3.7329,3.7398,3.7412,3.7497,3.7544,3.746,3.7466,3.7721,3.7726,3.773,3.778,0,0,0,0,0,0,3.7101,3.7124,3.7161,3.7208,3.7229,3.7349,3.73,3.7304,3.7338,3.7334,3.7383,3.7389,3.7397,3.7487,3.7503,3.7552,3.7471,3.7717,3.7723,3.7729,3.7774,3.7786,3.7796,0,0,0,0,0,3.7094,3.717,3.7163,3.7181,3.7276,3.7352,3.7364,3.7372,3.7342,3.738,3.7403,3.7387,3.7536,3.7496,3.7514,3.7565,3.7714,3.7721,3.7728,3.7769,3.7784,3.7796,0,0,0,0,0,0,3.7127,3.7176,3.7169,3.7263,3.7303,3.7348,3.7395,3.7387,3.7437,3.7431,3.7439,3.745,3.7537,3.7559,3.7513,3.7664,3.7621,3.7632,3.7646,3.766,3.767,3.7663,3.7476,0,0,0,0,0,3.7146,3.7203,3.7243,3.7322,3.7343,3.7366,3.7399,3.7402,3.7444,3.7461,3.749,3.7532,3.7588,3.7625,3.7679,3.7778,3.7789,3.7822,3.7833,3.7841,3.7851,3.7906,3.7922,3.7756,3.7756,3.7756,0,0,3.7184,3.7218,3.7254,3.733,3.7361,3.7421,3.738,3.7444,3.7489,3.7471,3.7553,3.7576,3.7623,3.7715,3.7757,3.7737,3.7899,3.7851,3.7857,3.7862,3.7915,3.7931,3.7945,3.7761,3.776,3.7759,0,0,3.7285,3.7316,3.7386,3.7419,3.7468,3.7483,3.75,3.7547,3.7561,3.7644,3.7632,3.7685,3.7782,3.7816,3.7846,3.7963,3.7951,3.798,3.8036,3.809,3.8103,3.8115,3.8157,3.8172,3.7989,3.7989,3.799,0,3.7326,3.7415,3.7423,3.7489,3.7523,3.7511,3.7582,3.7614,3.7678,3.7702,3.7678,3.7801,3.7831,3.7932,3.7961,3.7986,3.8006,3.7974,3.8101,3.8113,3.8124,3.8164,3.818,3.7993,3.7992,3.7992,3.7992,0,3.7464,3.7526,3.7577,3.764,3.768,3.7748,3.7767,3.7807,3.7807,3.7825,3.7909,3.7946,3.8008,3.8032,3.8032,3.8134,3.812,3.8099,3.8055,3.8143,3.8181,3.8196,3.7997,3.7996,3.7995,3.7994,0,0,3.7587,3.7655,3.7674,3.7703,3.7757,3.7805,3.7874,3.7935,3.7969,3.8014,3.8072,3.8155,3.8136,3.8171,3.8175,3.8222,3.8313,3.8195,3.8197,3.8216,3.8429,3.8445,3.8463,3.8306,3.8309,3.8311,3.8425,0,3.7693,3.7813,3.7823,3.7932,3.799,3.798,3.8039,3.8079,3.8098,3.8151,3.8172,3.8231,3.8201,3.8222,3.8268,3.8292,3.8356,3.8284,3.836,3.8363,3.8349,3.8482,3.8499,3.8605,3.844,3.8443,3.8444,0,3.7832,3.7882,3.7997,3.8044,3.8069,3.8122,3.818,3.823,3.8276,3.8286,3.8326,3.8324,3.8395,3.835,3.8449,3.84,3.8432,3.8449,3.8453,3.846,3.8409,3.8494,3.8638,3.8654,3.8468,3.8466,3.8464,0,3.7911,3.8007,3.8089,3.8114,3.8171,3.8209,3.8235,3.8278,3.8315,3.8365,3.8389,3.8447,3.8479,3.8524,3.8539,3.8504,3.8637,3.8593,3.8649,3.8648,3.8677,3.8675,3.8829,3.8697,3.8697,3.8697,3.8696,0,3.8028,3.8099,3.8125,3.8175,3.8254,3.8266,3.8344,3.8368,3.8406,3.8461,3.8456,3.8508,3.8524,3.8579,3.859,3.8671,3.8685,3.8696,3.8699,3.8697,3.8696,3.8718,3.8711,3.8701,3.87,3.8699,3.8698,0,3.8129,3.815,3.8238,3.8286,3.83,3.8356,3.8397,3.8446,3.8465,3.8534,3.8551,3.8581,3.8645,3.8665,3.8742,3.875,3.8845,3.884,3.8829,3.8829,3.8884,3.8879,3.9058,3.9083,3.8935,3.8936,3.8937,0,3.8203,3.8257,3.8311,3.8348,3.8375,3.8434,3.8472,3.8486,3.8525,3.8583,3.8625,3.8689,3.874,3.8844,3.8872,3.8932,3.8929,3.8988,3.8938,3.8935,3.8931,3.8928,3.8934,3.8997,3.8999,3.9,3.9001,0,3.8331,3.8339,3.8393,3.8452,3.8498,3.8545,3.859,3.862,3.864,3.8685,3.8752,3.8792,3.8872,3.8935,3.8996,3.9023,3.9016,3.9017,3.9033,3.9032,3.9023,3.9029,3.8855,3.9012,3.9011,3.901,3.901,3.9009,3.8421,3.8469,3.8515,3.8577,3.8612,3.8655,3.8704,3.8729,3.8785,3.8851,3.8856,3.8928,3.8974,3.9055,3.9085,3.9142,3.9125,3.9148,3.9154,3.916,3.9165,3.9015,3.9153,3.9153,3.9153,3.9152,3.9152,0,3.8549,3.8579,3.8635,3.8699,3.8748,3.8738,3.8788,3.8829,3.8893,3.8936,3.8988,3.9065,3.9127,3.9161,3.9224,3.9263,3.9261,3.9279,3.9276,3.9283,3.9176,3.9156,3.9279,3.9279,3.9279,3.9279,3.9279,3.9279,3.8622,3.8704,3.8717,3.8817,3.8846,3.8917,3.8947,3.8986,3.9022,3.9108,3.916,3.9182,3.9222,3.9288,3.9345,3.9354,3.9377,3.9397,3.9404,3.9303,3.929,3.9278,3.9259,3.9402,3.9402,3.9506,3.9507,3.9507]},{"header":{"parameterUnit":"m.s-1","parameterCategory":1,"la1":30.2991,"la2":30.254,"lo1":-89.0895,"lo2":-89.0444,"dy":0.0017,"dx":0.0017,"nx":28,"ny":28,"refTime":"2024-09-27T03:00:00:Z","depth":0,"parameterNumber":3,"parameterNumberName":"V-component_of_WINDS"},"data":[0,0,0,0,0,0,0,0,0,0,0,0,0,0,0,0,0,0,0,0,0,0,0,0,0,0,0,0,0,0,0,0,0,0,0,0,0,0,0,0,0,0,0,0,0,0,0,0,0,0,0,0,0,0,0,0,0,0,-7.503,-7.5033,0,-7.5289,-7.5292,-7.5295,-7.5258,-7.5254,-7.525,-7.5245,-7.5508,-7.5518,-7.5529,0,0,0,0,0,0,0,0,0,0,0,0,0,-7.4502,-7.4512,-7.503,-7.5033,-7.5036,-7.5289,-7.5292,-7.5296,-7.5259,-7.5254,-7.5248,-7.5243,-7.5504,-7.5517,-7.553,0,0,0,0,0,0,0,0,0,0,0,0,0,-7.4743,-7.4515,-7.5029,-7.5049,-7.5053,-7.5288,-7.5292,-7.5297,-7.526,-7.5254,-7.5247,-7.5241,-7.55,-7.5516,-7.5532,-7.5764,0,0,-7.5583,-7.559,0,0,0,0,0,0,0,0,-7.473,-7.4763,-7.5042,-7.5048,-7.5053,-7.5235,-7.5202,-7.5453,-7.5262,-7.5181,-7.5245,-7.5238,-7.5422,-7.5444,-7.5507,-7.5776,-7.5787,-7.5584,-7.5594,-7.5601,-7.5606,0,0,0,0,0,0,0,-7.4713,-7.4751,-7.5132,-7.5047,-7.5053,-7.5044,-7.5071,-7.525,-7.5335,-7.5188,-7.5186,-7.5217,-7.5424,-7.5491,-7.5513,-7.5791,-7.5584,-7.5598,-7.5609,-7.5615,-7.6266,-7.6273,0,0,0,0,0,0,-7.4691,-7.4738,-7.5124,-7.514,-7.4872,-7.5059,-7.5089,-7.5183,-7.5333,-7.5349,-7.5222,-7.5214,-7.5466,-7.5494,-7.5522,-7.5806,-7.5601,-7.5617,-7.5626,-7.6259,-7.6268,-7.6276,0,0,0,0,0,0,-7.468,-7.4726,-7.5114,-7.4939,-7.4987,-7.5075,-7.518,-7.5191,-7.5259,-7.5359,-7.5374,-7.5276,-7.5462,-7.5499,-7.5705,-7.5814,-7.5624,-7.5639,-7.625,-7.6261,-7.6272,-7.6373,0,0,0,0,0,0,-7.4665,-7.4722,-7.4812,-7.4941,-7.4997,-7.5293,-7.5187,-7.5201,-7.5288,-7.528,-7.5413,-7.5429,-7.546,-7.5681,-7.5721,-7.5834,-7.5652,-7.6241,-7.6255,-7.6268,-7.636,-7.6386,-7.6408,0,0,0,0,0,-7.4646,-7.4828,-7.4816,-7.4863,-7.511,-7.5299,-7.5331,-7.5364,-7.5297,-7.5388,-7.5452,-7.5425,-7.5795,-7.5702,-7.5748,-7.5866,-7.6234,-7.6251,-7.6267,-7.635,-7.6381,-7.6408,0,0,0,0,0,0,-7.4708,-7.4846,-7.4834,-7.5063,-7.517,-7.5293,-7.5408,-7.5396,-7.5523,-7.551,-7.5544,-7.5575,-7.5784,-7.5845,-7.5739,-7.61,-7.6005,-7.6032,-7.6052,-7.6083,-7.6107,-7.6088,-7.5666,0,0,0,0,0,-7.4749,-7.4892,-7.5003,-7.5195,-7.525,-7.532,-7.5403,-7.542,-7.5531,-7.5576,-7.5655,-7.5764,-7.5905,-7.5997,-7.6132,-7.6369,-7.6398,-7.6473,-7.6497,-7.6516,-7.6539,-7.6671,-7.6707,-7.633,-7.633,-7.633,0,0,-7.4833,-7.4926,-7.5014,-7.521,-7.5295,-7.5442,-7.5358,-7.5516,-7.5626,-7.5599,-7.58,-7.5862,-7.5986,-7.6209,-7.6311,-7.6266,-7.665,-7.6537,-7.6552,-7.6565,-7.6692,-7.6728,-7.6759,-7.6342,-7.6339,-7.6338,0,0,-7.5064,-7.5148,-7.5318,-7.5405,-7.5535,-7.5581,-7.5622,-7.5748,-7.5788,-7.599,-7.5974,-7.6104,-7.6346,-7.6436,-7.6513,-7.678,-7.6761,-7.6823,-7.6949,-7.7077,-7.7107,-7.7133,-7.7231,-7.7265,-7.6845,-7.6845,-7.6846,0,-7.5153,-7.5375,-7.5407,-7.5569,-7.5656,-7.564,-7.5813,-7.5896,-7.6063,-7.6124,-7.6071,-7.6377,-7.6458,-7.6704,-7.6769,-7.6831,-7.688,-7.6808,-7.71,-7.7127,-7.7152,-7.7246,-7.7282,-7.6852,-7.6851,-7.6851,-7.685,0,-7.5479,-7.5633,-7.5755,-7.5919,-7.602,-7.6186,-7.6244,-7.6342,-7.635,-7.6401,-7.6608,-7.6706,-7.6862,-7.692,-7.6928,-7.7168,-7.7137,-7.7092,-7.6998,-7.7195,-7.7283,-7.7319,-7.6862,-7.686,-7.6858,-7.6856,0,0,-7.5755,-7.5937,-7.5981,-7.6057,-7.62,-7.6319,-7.6485,-7.664,-7.6724,-7.684,-7.6981,-7.7187,-7.7148,-7.7236,-7.7254,-7.7366,-7.7575,-7.7308,-7.7312,-7.7356,-7.7847,-7.7881,-7.7922,-7.7562,-7.7569,-7.7574,-7.7837,0,-7.6002,-7.6297,-7.6331,-7.6594,-7.6738,-7.6726,-7.6871,-7.6975,-7.7027,-7.7157,-7.7214,-7.7361,-7.7296,-7.735,-7.746,-7.7526,-7.7674,-7.7507,-7.7695,-7.7701,-7.7666,-7.7968,-7.8005,-7.8248,-7.7872,-7.7878,-7.7882,0,-7.6328,-7.6456,-7.6734,-7.686,-7.6921,-7.7051,-7.7197,-7.732,-7.7438,-7.7468,-7.7568,-7.7572,-7.7744,-7.7642,-7.7881,-7.7767,-7.7845,-7.7889,-7.7899,-7.792,-7.7805,-7.7999,-7.8326,-7.8364,-7.7936,-7.7932,-7.7928,0,-7.6505,-7.6746,-7.6945,-7.7009,-7.716,-7.7252,-7.7319,-7.743,-7.7521,-7.7648,-7.7708,-7.7852,-7.7932,-7.8043,-7.8086,-7.8008,-7.8324,-7.8225,-7.8355,-7.8354,-7.8423,-7.8419,-7.8771,-7.847,-7.847,-7.8469,-7.8468,0,-7.6778,-7.6949,-7.7027,-7.7149,-7.7341,-7.7378,-7.7567,-7.763,-7.7729,-7.7864,-7.786,-7.7986,-7.8035,-7.8169,-7.8204,-7.8398,-7.8432,-7.8463,-7.847,-7.8465,-7.8461,-7.8518,-7.8503,-7.8479,-7.8477,-7.8475,-7.8473,0,-7.7009,-7.7067,-7.7283,-7.7409,-7.7445,-7.7581,-7.7689,-7.7807,-7.7858,-7.8028,-7.807,-7.8151,-7.8309,-7.8363,-7.8553,-7.8577,-7.8803,-7.8795,-7.8764,-7.8766,-7.8894,-7.8883,-7.9297,-7.9354,-7.9014,-7.9017,-7.902,0,-7.718,-7.7312,-7.7452,-7.7543,-7.7614,-7.7759,-7.7853,-7.7895,-7.7993,-7.8139,-7.824,-7.8397,-7.8525,-7.8778,-7.8853,-7.9,-7.8997,-7.9132,-7.9018,-7.901,-7.9002,-7.8995,-7.9009,-7.9153,-7.9157,-7.916,-7.9162,0,-7.7478,-7.7501,-7.7637,-7.7785,-7.7897,-7.8015,-7.8128,-7.8203,-7.8262,-7.8372,-7.8534,-7.8634,-7.883,-7.8987,-7.9137,-7.9205,-7.9195,-7.9197,-7.9235,-7.9232,-7.921,-7.9226,-7.8825,-7.9188,-7.9185,-7.9183,-7.9182,-7.9181,-7.7686,-7.7804,-7.7923,-7.8075,-7.8165,-7.8272,-7.8391,-7.8458,-7.8594,-7.8758,-7.8774,-7.895,-7.9066,-7.9267,-7.9342,-7.948,-7.9443,-7.9497,-7.9512,-7.9525,-7.9537,-7.9186,-7.9507,-7.9507,-7.9506,-7.9506,-7.9505,0,-7.7987,-7.8063,-7.8203,-7.8363,-7.8483,-7.8463,-7.8589,-7.8691,-7.8846,-7.8955,-7.9082,-7.927,-7.9422,-7.951,-7.9663,-7.9757,-7.9756,-7.9796,-7.979,-7.9807,-7.956,-7.9513,-7.9794,-7.9794,-7.9794,-7.9794,-7.9794,-7.9794,-7.8158,-7.8357,-7.8394,-7.8639,-7.8713,-7.8886,-7.896,-7.9059,-7.9147,-7.9358,-7.9485,-7.9541,-7.9643,-7.9804,-7.9943,-7.9965,-8.0022,-8.0066,-8.0085,-7.9853,-7.9824,-7.9795,-7.9752,-8.0078,-8.0078,-8.032,-8.0323,-8.0324]}]]